Location: Unspecified
(0.0000°N, 0.0000°E)
Time: 10:12:41
(UTC+00:00)

Vanguard 2 - Pass Details

Date: 19 December 2018
Orbit: 552 x 2939 km, 32.9° (Epoch: 17 January)

Event Time Altitude Azimuth Distance (km) Brightness Sun altitude
Rises 09:44:06 0° 223° (SW) 6,556 12.2 50.1°
Reaches altitude 10° 09:52:54 10° 198° (SSW) 5,071 12.0 51.8°
Maximum altitude 09:58:17 13° 176° (S) 4,442 12.0 52.9°
Drops below altitude 10° 10:02:56 10° 152° (SSE) 4,267 12.1 53.7°
Sets 10:08:43 0° 125° (SE) 4,681 12.1 54.8°
